Location: B?lite?ti
(46.2833°N, 22.7333°E)
Time: 04:17:49
(UTC+00:00)

Cosmos 44 - Pass Details

Date: 24 January 2021
Orbit: 572 x 789 km, 65.1° (Epoch: 26 February)

Event Time Altitude Azimuth Distance (km) Brightness Sun altitude
Rises 16:40:42 0° 206° (SSW) 2,954 7.2 -13.5°
Reaches altitude 10° 16:42:56 10° 204° (SSW) 2,081 6.3 -13.9°
Maximum altitude 16:47:38 67° 122° (ESE) 757 3.3 -14.7°
Enters shadow 16:51:20 18° 43° (NE) 1,720 4.9 -15.3°
